User: anonymous   Login
Location: Unspecified
(0.0000°N, 0.0000°E)
Time: 07:31:28
(UTC+00:00)
Language:

GRIFEX - Orbit

View from above orbital plane
View from above orbital plane
View from above satellite
View from above satellite

Ground track
Ground track

The orbit data is extracted from the following two-line orbital elements,

1 40379U 15003D   17148.80695352 +.00002422 +00000-0 +11169-3 0  9992
2 40379 099.1241 326.7997 0143491 073.9834 287.7142 15.12877759127957
Epoch (UTC): 28 May 2017 19:22:00
Eccentricity: 0.0143491
inclination: 99.1241°
perigee height: 428 km
apogee height: 626 km
right ascension of ascending node: 326.7997°
argument of perigee: 73.9834°
revolutions per day: 15.12877759
mean anomaly at epoch: 287.7142°
orbit number at epoch: 12795

The dashed part of the orbit path shows where the satellite is in the earth's shadow,  

DLR